﻿測定場所 (Monitoring sites),日付 (Measurement date),時間 (Measurement time),線量率 最大値 (max) μGy/h,線量率 最小値 (min) μGy/h,線量率 平均値 (average) μGy/h,
小平 (Kodaira),2013-08-25,23:01～24:00,0.0398,0.0341,0.0362,
小平 (Kodaira),2013-08-25,22:01～23:00,0.0391,0.0343,0.0360,
小平 (Kodaira),2013-08-25,21:01～22:00,0.0383,0.0339,0.0360,
小平 (Kodaira),2013-08-25,20:01～21:00,0.0372,0.0332,0.0357,
小平 (Kodaira),2013-08-25,19:01～20:00,0.0389,0.0332,0.0357,
小平 (Kodaira),2013-08-25,18:01～19:00,0.0396,0.0338,0.0359,
小平 (Kodaira),2013-08-25,17:01～18:00,0.0400,0.0343,0.0364,
小平 (Kodaira),2013-08-25,16:01～17:00,0.0387,0.0338,0.0358,
小平 (Kodaira),2013-08-25,15:01～16:00,0.0370,0.0336,0.0356,
小平 (Kodaira),2013-08-25,14:01～15:00,0.0379,0.0333,0.0358,
小平 (Kodaira),2013-08-25,13:01～14:00,0.0392,0.0336,0.0358,
小平 (Kodaira),2013-08-25,12:01～13:00,0.0391,0.0343,0.0363,
小平 (Kodaira),2013-08-25,11:01～12:00,0.0408,0.0354,0.0376,
小平 (Kodaira),2013-08-25,10:01～11:00,0.0451,0.0368,0.0406,
小平 (Kodaira),2013-08-25,09:01～10:00,0.0454,0.0376,0.0410,
小平 (Kodaira),2013-08-25,08:01～09:00,0.0441,0.0369,0.0400,
小平 (Kodaira),2013-08-25,07:01～08:00,0.0463,0.0393,0.0424,
小平 (Kodaira),2013-08-25,06:01～07:00,0.0463,0.0383,0.0428,
小平 (Kodaira),2013-08-25,05:01～06:00,0.0433,0.0348,0.0375,
小平 (Kodaira),2013-08-25,04:01～05:00,0.0394,0.0338,0.0361,
小平 (Kodaira),2013-08-25,03:01～04:00,0.0393,0.0341,0.0363,
小平 (Kodaira),2013-08-25,02:01～03:00,0.0412,0.0350,0.0368,
小平 (Kodaira),2013-08-25,01:01～02:00,0.0384,0.0343,0.0362,
小平 (Kodaira),2013-08-25,00:01～01:00,0.0392,0.0332,0.0357,
小平 (Kodaira),2013-08-24,23:01～24:00,0.0387,0.0333,0.0356,
小平 (Kodaira),2013-08-24,22:01～23:00,0.0383,0.0338,0.0356,
小平 (Kodaira),2013-08-24,21:01～22:00,0.0388,0.0341,0.0359,
小平 (Kodaira),2013-08-24,20:01～21:00,0.0371,0.0339,0.0357,
小平 (Kodaira),2013-08-24,19:01～20:00,0.0379,0.0344,0.0360,
小平 (Kodaira),2013-08-24,18:01～19:00,0.0404,0.0341,0.0359,
小平 (Kodaira),2013-08-24,17:01～18:00,0.0375,0.0333,0.0358,
小平 (Kodaira),2013-08-24,16:01～17:00,0.0372,0.0330,0.0357,
小平 (Kodaira),2013-08-24,15:01～16:00,0.0379,0.0335,0.0358,
小平 (Kodaira),2013-08-24,14:01～15:00,0.0387,0.0343,0.0360,
小平 (Kodaira),2013-08-24,13:01～14:00,0.0370,0.0339,0.0357,
小平 (Kodaira),2013-08-24,12:01～13:00,0.0409,0.0343,0.0366,
小平 (Kodaira),2013-08-24,11:01～12:00,0.0385,0.0340,0.0364,
小平 (Kodaira),2013-08-24,10:01～11:00,0.0388,0.0344,0.0363,
小平 (Kodaira),2013-08-24,09:01～10:00,0.0404,0.0350,0.0374,
小平 (Kodaira),2013-08-24,08:01～09:00,0.0401,0.0355,0.0375,
小平 (Kodaira),2013-08-24,07:01～08:00,0.0410,0.0357,0.0373,
小平 (Kodaira),2013-08-24,06:01～07:00,0.0399,0.0338,0.0366,
小平 (Kodaira),2013-08-24,05:01～06:00,0.0388,0.0340,0.0363,
小平 (Kodaira),2013-08-24,04:01～05:00,0.0392,0.0349,0.0362,
小平 (Kodaira),2013-08-24,03:01～04:00,0.0390,0.0344,0.0363,
小平 (Kodaira),2013-08-24,02:01～03:00,0.0403,0.0345,0.0368,
小平 (Kodaira),2013-08-24,01:01～02:00,0.0412,0.0349,0.0381,
小平 (Kodaira),2013-08-24,00:01～01:00,0.0428,0.0354,0.0382,
小平 (Kodaira),2013-08-23,23:01～24:00,0.0490,0.0370,0.0435,
小平 (Kodaira),2013-08-23,22:01～23:00,0.0525,0.0445,0.0487,
小平 (Kodaira),2013-08-23,21:01～22:00,0.0507,0.0365,0.0420,
小平 (Kodaira),2013-08-23,20:01～21:00,0.0395,0.0341,0.0363,
小平 (Kodaira),2013-08-23,19:01～20:00,0.0394,0.0343,0.0362,
小平 (Kodaira),2013-08-23,18:01～19:00,0.0412,0.0349,0.0370,
小平 (Kodaira),2013-08-23,17:01～18:00,0.0419,0.0359,0.0391,
小平 (Kodaira),2013-08-23,16:01～17:00,0.0397,0.0345,0.0367,
小平 (Kodaira),2013-08-23,15:01～16:00,0.0399,0.0345,0.0370,
小平 (Kodaira),2013-08-23,14:01～15:00,0.0402,0.0339,0.0364,
小平 (Kodaira),2013-08-23,13:01～14:00,0.0380,0.0332,0.0358,
小平 (Kodaira),2013-08-23,12:01～13:00,0.0373,0.0334,0.0355,
小平 (Kodaira),2013-08-23,11:01～12:00,0.0367,0.0339,0.0353,
小平 (Kodaira),2013-08-23,10:01～11:00,0.0380,0.0336,0.0356,
小平 (Kodaira),2013-08-23,09:01～10:00,0.0377,0.0333,0.0355,
小平 (Kodaira),2013-08-23,08:01～09:00,0.0384,0.0342,0.0361,
小平 (Kodaira),2013-08-23,07:01～08:00,0.0382,0.0342,0.0363,
小平 (Kodaira),2013-08-23,06:01～07:00,0.0381,0.0334,0.0362,
小平 (Kodaira),2013-08-23,05:01～06:00,0.0405,0.0345,0.0374,
小平 (Kodaira),2013-08-23,04:01～05:00,0.0415,0.0351,0.0379,
小平 (Kodaira),2013-08-23,03:01～04:00,0.0395,0.0336,0.0364,
小平 (Kodaira),2013-08-23,02:01～03:00,0.0396,0.0328,0.0358,
小平 (Kodaira),2013-08-23,01:01～02:00,0.0369,0.0329,0.0351,
小平 (Kodaira),2013-08-23,00:01～01:00,0.0368,0.0325,0.0348,
小平 (Kodaira),2013-08-22,23:01～24:00,0.0368,0.0328,0.0352,
小平 (Kodaira),2013-08-22,22:01～23:00,0.0375,0.0337,0.0351,
小平 (Kodaira),2013-08-22,21:01～22:00,0.0372,0.0335,0.0351,
小平 (Kodaira),2013-08-22,20:01～21:00,0.0366,0.0330,0.0348,
小平 (Kodaira),2013-08-22,19:01～20:00,0.0376,0.0332,0.0350,
小平 (Kodaira),2013-08-22,18:01～19:00,0.0367,0.0329,0.0351,
小平 (Kodaira),2013-08-22,17:01～18:00,0.0380,0.0332,0.0353,
小平 (Kodaira),2013-08-22,16:01～17:00,0.0382,0.0325,0.0353,
小平 (Kodaira),2013-08-22,15:01～16:00,0.0369,0.0332,0.0352,
小平 (Kodaira),2013-08-22,14:01～15:00,0.0371,0.0326,0.0352,
小平 (Kodaira),2013-08-22,13:01～14:00,0.0373,0.0335,0.0354,
小平 (Kodaira),2013-08-22,12:01～13:00,0.0372,0.0341,0.0355,
小平 (Kodaira),2013-08-22,11:01～12:00,0.0376,0.0327,0.0355,
小平 (Kodaira),2013-08-22,10:01～11:00,0.0360,0.0331,0.0348,
小平 (Kodaira),2013-08-22,09:01～10:00,0.0371,0.0324,0.0351,
小平 (Kodaira),2013-08-22,08:01～09:00,0.0372,0.0333,0.0351,
小平 (Kodaira),2013-08-22,07:01～08:00,0.0368,0.0336,0.0352,
小平 (Kodaira),2013-08-22,06:01～07:00,0.0369,0.0333,0.0350,
小平 (Kodaira),2013-08-22,05:01～06:00,0.0371,0.0330,0.0352,
小平 (Kodaira),2013-08-22,04:01～05:00,0.0365,0.0327,0.0348,
小平 (Kodaira),2013-08-22,03:01～04:00,0.0372,0.0334,0.0352,
小平 (Kodaira),2013-08-22,02:01～03:00,0.0370,0.0326,0.0351,
小平 (Kodaira),2013-08-22,01:01～02:00,0.0368,0.0335,0.0350,
小平 (Kodaira),2013-08-22,00:01～01:00,0.0367,0.0327,0.0349,
小平 (Kodaira),2013-08-21,23:01～24:00,0.0373,0.0338,0.0355,
小平 (Kodaira),2013-08-21,22:01～23:00,0.0399,0.0337,0.0368,
小平 (Kodaira),2013-08-21,21:01～22:00,0.0458,0.0366,0.0408,
小平 (Kodaira),2013-08-21,20:01～21:00,0.0417,0.0340,0.0364,
小平 (Kodaira),2013-08-21,19:01～20:00,0.0401,0.0342,0.0363,
小平 (Kodaira),2013-08-21,18:01～19:00,0.0387,0.0337,0.0358,
小平 (Kodaira),2013-08-21,17:01～18:00,0.0377,0.0339,0.0356,
小平 (Kodaira),2013-08-21,16:01～17:00,0.0392,0.0332,0.0362,
小平 (Kodaira),2013-08-21,15:01～16:00,0.0398,0.0339,0.0369,
小平 (Kodaira),2013-08-21,14:01～15:00,0.0371,0.0334,0.0355,
小平 (Kodaira),2013-08-21,13:01～14:00,0.0382,0.0342,0.0359,
小平 (Kodaira),2013-08-21,12:01～13:00,0.0383,0.0328,0.0359,
小平 (Kodaira),2013-08-21,11:01～12:00,0.0378,0.0342,0.0361,
小平 (Kodaira),2013-08-21,10:01～11:00,0.0383,0.0344,0.0362,
小平 (Kodaira),2013-08-21,09:01～10:00,0.0395,0.0347,0.0366,
小平 (Kodaira),2013-08-21,08:01～09:00,0.0418,0.0352,0.0373,
小平 (Kodaira),2013-08-21,07:01～08:00,0.0393,0.0346,0.0364,
小平 (Kodaira),2013-08-21,06:01～07:00,0.0381,0.0339,0.0362,
小平 (Kodaira),2013-08-21,05:01～06:00,0.0397,0.0346,0.0364,
小平 (Kodaira),2013-08-21,04:01～05:00,0.0390,0.0343,0.0363,
小平 (Kodaira),2013-08-21,03:01～04:00,0.0375,0.0341,0.0359,
小平 (Kodaira),2013-08-21,02:01～03:00,0.0374,0.0336,0.0356,
小平 (Kodaira),2013-08-21,01:01～02:00,0.0379,0.0339,0.0356,
小平 (Kodaira),2013-08-21,00:01～01:00,0.0373,0.0339,0.0357,
小平 (Kodaira),2013-08-20,23:01～24:00,0.0372,0.0337,0.0356,
小平 (Kodaira),2013-08-20,22:01～23:00,0.0376,0.0336,0.0355,
小平 (Kodaira),2013-08-20,21:01～22:00,0.0372,0.0336,0.0354,
小平 (Kodaira),2013-08-20,20:01～21:00,0.0376,0.0335,0.0356,
小平 (Kodaira),2013-08-20,19:01～20:00,0.0375,0.0329,0.0350,
小平 (Kodaira),2013-08-20,18:01～19:00,0.0389,0.0327,0.0351,
小平 (Kodaira),2013-08-20,17:01～18:00,0.0367,0.0330,0.0349,
小平 (Kodaira),2013-08-20,16:01～17:00,0.0374,0.0329,0.0351,
小平 (Kodaira),2013-08-20,15:01～16:00,0.0370,0.0329,0.0352,
小平 (Kodaira),2013-08-20,14:01～15:00,0.0369,0.0326,0.0351,
小平 (Kodaira),2013-08-20,13:01～14:00,0.0369,0.0325,0.0350,
小平 (Kodaira),2013-08-20,12:01～13:00,0.0371,0.0337,0.0352,
小平 (Kodaira),2013-08-20,11:01～12:00,0.0375,0.0335,0.0353,
小平 (Kodaira),2013-08-20,10:01～11:00,0.0369,0.0331,0.0353,
小平 (Kodaira),2013-08-20,09:01～10:00,0.0385,0.0337,0.0357,
小平 (Kodaira),2013-08-20,08:01～09:00,0.0401,0.0346,0.0371,
小平 (Kodaira),2013-08-20,07:01～08:00,0.0415,0.0356,0.0378,
小平 (Kodaira),2013-08-20,06:01～07:00,0.0402,0.0361,0.0377,
小平 (Kodaira),2013-08-20,05:01～06:00,0.0399,0.0346,0.0364,
小平 (Kodaira),2013-08-20,04:01～05:00,0.0372,0.0337,0.0355,
小平 (Kodaira),2013-08-20,03:01～04:00,0.0375,0.0329,0.0352,
小平 (Kodaira),2013-08-20,02:01～03:00,0.0366,0.0338,0.0354,
小平 (Kodaira),2013-08-20,01:01～02:00,0.0371,0.0332,0.0351,
小平 (Kodaira),2013-08-20,00:01～01:00,0.0374,0.0331,0.0353,
小平 (Kodaira),2013-08-19,23:01～24:00,0.0386,0.0332,0.0354,
小平 (Kodaira),2013-08-19,22:01～23:00,0.0394,0.0322,0.0354,
小平 (Kodaira),2013-08-19,21:01～22:00,0.0371,0.0339,0.0354,
小平 (Kodaira),2013-08-19,20:01～21:00,0.0374,0.0329,0.0353,
小平 (Kodaira),2013-08-19,19:01～20:00,0.0373,0.0333,0.0354,
小平 (Kodaira),2013-08-19,18:01～19:00,0.0373,0.0332,0.0352,
小平 (Kodaira),2013-08-19,17:01～18:00,0.0368,0.0332,0.0349,
小平 (Kodaira),2013-08-19,16:01～17:00,0.0375,0.0330,0.0352,
小平 (Kodaira),2013-08-19,15:01～16:00,0.0369,0.0334,0.0352,
小平 (Kodaira),2013-08-19,14:01～15:00,0.0372,0.0332,0.0354,
小平 (Kodaira),2013-08-19,13:01～14:00,0.0369,0.0333,0.0354,
小平 (Kodaira),2013-08-19,12:01～13:00,0.0371,0.0335,0.0354,
小平 (Kodaira),2013-08-19,11:01～12:00,0.0375,0.0340,0.0355,
小平 (Kodaira),2013-08-19,10:01～11:00,0.0384,0.0342,0.0359,
小平 (Kodaira),2013-08-19,09:01～10:00,0.0406,0.0335,0.0358,
小平 (Kodaira),2013-08-19,08:01～09:00,0.0383,0.0335,0.0358,
小平 (Kodaira),2013-08-19,07:01～08:00,0.0371,0.0337,0.0357,
小平 (Kodaira),2013-08-19,06:01～07:00,0.0383,0.0341,0.0361,
小平 (Kodaira),2013-08-19,05:01～06:00,0.0382,0.0338,0.0362,
小平 (Kodaira),2013-08-19,04:01～05:00,0.0382,0.0346,0.0362,
小平 (Kodaira),2013-08-19,03:01～04:00,0.0391,0.0337,0.0360,
小平 (Kodaira),2013-08-19,02:01～03:00,0.0383,0.0334,0.0359,
小平 (Kodaira),2013-08-19,01:01～02:00,0.0384,0.0336,0.0356,
小平 (Kodaira),2013-08-19,00:01～01:00,0.0371,0.0336,0.0354,
